TimeCST,TemperatureF,Dew PointF,Humidity,Sea Level PressureIn,VisibilityMPH,Wind Direction,Wind SpeedMPH,Gust SpeedMPH,PrecipitationIn,Events,Conditions,WindDirDegrees,DateUTC
12:56 AM,-4.0,-8.0,83,30.14,10.0,Calm,Calm,-,N/A,,Clear,0,2013-02-06 06:56:00
1:56 AM,-4.0,-8.9,80,30.16,10.0,Calm,Calm,-,N/A,,Clear,0,2013-02-06 07:56:00
2:56 AM,-6.9,-10.8,83,30.17,10.0,Calm,Calm,-,N/A,,Clear,0,2013-02-06 08:56:00
4:56 AM,-8.9,-13.9,79,30.19,10.0,Calm,Calm,-,N/A,,Clear,0,2013-02-06 10:56:00
5:56 AM,-9.9,-15.0,78,30.19,10.0,Calm,Calm,-,N/A,,Clear,0,2013-02-06 11:56:00
6:56 AM,-10.8,-17.0,74,30.21,10.0,Calm,Calm,-,N/A,,Clear,0,2013-02-06 12:56:00
7:56 AM,-9.9,-15.0,78,30.22,8.0,Calm,Calm,-,N/A,,Mostly Cloudy,0,2013-02-06 13:56:00
8:03 AM,-9.4,-14.8,77,30.17,9.0,Calm,Calm,-,N/A,,Mostly Cloudy,0,2013-02-06 14:03:00
8:56 AM,-4.0,-8.0,83,30.25,8.0,Calm,Calm,-,N/A,,Overcast,0,2013-02-06 14:56:00
9:56 AM,8.1,5.0,87,30.25,8.0,Calm,Calm,-,N/A,,Scattered Clouds,0,2013-02-06 15:56:00
10:22 AM,10.4,6.8,85,30.19,8.0,Calm,Calm,-,N/A,,Mostly Cloudy,0,2013-02-06 16:22:00
10:56 AM,14.0,11.1,88,30.22,9.0,Calm,Calm,-,N/A,,Scattered Clouds,0,2013-02-06 16:56:00
11:56 AM,19.4,10.4,68,30.18,10.0,Calm,Calm,-,N/A,,Mostly Cloudy,0,2013-02-06 17:56:00
12:56 PM,24.1,13.1,63,30.21,10.0,Calm,Calm,-,N/A,,Overcast,0,2013-02-06 18:56:00
1:56 PM,24.1,14.0,65,30.19,10.0,Calm,Calm,-,N/A,,Overcast,0,2013-02-06 19:56:00
2:26 PM,23.0,14.0,68,30.13,3.0,SSE,4.6,-,0.00,,Overcast,160,2013-02-06 20:26:00
2:34 PM,23.0,15.8,74,30.13,2.5,SE,5.8,-,0.00,,Mostly Cloudy,140,2013-02-06 20:34:00
2:42 PM,21.2,15.8,80,30.13,2.0,SSE,4.6,-,0.00,Snow,Light Snow,150,2013-02-06 20:42:00
2:56 PM,21.2,17.6,86,30.13,1.5,Calm,Calm,-,N/A,Snow,Light Snow,0,2013-02-06 20:56:00
3:18 PM,21.2,17.6,86,30.13,2.5,SE,6.9,-,0.00,Snow,Light Snow,130,2013-02-06 21:18:00
3:25 PM,21.2,17.6,86,30.12,1.2,ESE,5.8,-,0.00,Snow,Light Snow,120,2013-02-06 21:25:00
3:31 PM,21.2,17.6,86,30.12,0.8,ESE,4.6,-,0.00,Snow,Light Snow,120,2013-02-06 21:31:00
3:41 PM,21.2,17.6,86,30.12,0.5,ESE,5.8,-,0.00,Fog-Snow,Light Snow,110,2013-02-06 21:41:00
3:56 PM,21.0,18.1,89,30.17,1.0,ESE,5.8,-,0.00,Snow,Light Snow,120,2013-02-06 21:56:00
3:59 PM,21.2,17.6,86,30.12,1.5,ESE,5.8,-,0.00,Snow,Light Snow,110,2013-02-06 21:59:00
4:06 PM,21.2,17.6,86,30.12,3.0,SE,6.9,-,0.00,Snow,Light Snow,130,2013-02-06 22:06:00
4:13 PM,21.2,17.6,86,30.11,4.0,ESE,4.6,-,0.00,,Scattered Clouds,110,2013-02-06 22:13:00
4:56 PM,21.0,17.1,85,30.15,6.0,East,5.8,-,0.00,,Overcast,90,2013-02-06 22:56:00
5:56 PM,21.0,17.1,85,30.16,6.0,Calm,Calm,-,N/A,,Overcast,0,2013-02-06 23:56:00
6:42 PM,21.2,17.6,86,30.09,2.5,ESE,4.6,-,0.00,Snow,Light Snow,110,2013-02-07 00:42:00
6:56 PM,21.0,18.1,89,30.14,3.0,East,4.6,-,0.00,Snow,Light Snow,100,2013-02-07 00:56:00
7:11 PM,21.2,17.6,86,30.10,2.0,NE,8.1,-,0.00,Snow,Light Snow,40,2013-02-07 01:11:00
7:15 PM,21.2,19.4,93,30.10,1.8,NE,8.1,-,0.00,Snow,Light Snow,50,2013-02-07 01:15:00
7:27 PM,21.2,19.4,93,30.08,1.2,East,6.9,-,0.00,Snow,Light Snow,80,2013-02-07 01:27:00
7:32 PM,21.2,19.4,93,30.08,2.0,East,6.9,-,0.00,Snow,Light Snow,80,2013-02-07 01:32:00
7:38 PM,21.2,19.4,93,30.08,4.0,East,9.2,-,0.00,Snow,Light Snow,90,2013-02-07 01:38:00
7:56 PM,23.0,20.1,89,30.12,5.0,East,8.1,-,0.00,,Overcast,90,2013-02-07 01:56:00
8:34 PM,24.8,21.2,86,30.06,5.0,ESE,6.9,-,N/A,,Overcast,120,2013-02-07 02:34:00
8:44 PM,24.8,21.2,86,30.07,5.0,Calm,Calm,-,N/A,,Overcast,0,2013-02-07 02:44:00
8:56 PM,24.1,21.0,88,30.11,5.0,ENE,3.5,-,N/A,,Overcast,70,2013-02-07 02:56:00
9:56 PM,23.0,21.0,92,30.12,4.0,Calm,Calm,-,N/A,,Overcast,0,2013-02-07 03:56:00
10:56 PM,24.1,21.0,88,30.11,4.0,ENE,4.6,-,0.00,,Overcast,60,2013-02-07 04:56:00
11:15 PM,24.8,21.2,86,30.07,4.0,ENE,3.5,-,N/A,,Overcast,60,2013-02-07 05:15:00
11:56 PM,24.1,22.1,92,30.10,4.0,Calm,Calm,-,N/A,,Overcast,0,2013-02-07 05:56:00